Location: Unspecified
(51.0950°N, 12.9690°E)
Time: 00:15:23
(UTC+00:00)

BUGSAT 1 - Visible Passes

Search period start: 24 April 2024 00:00
Search period end: 04 May 2024 00:00
Orbit: 533 x 581 km, 98.1° (Epoch: 23 April)

Date Brightness Start Highest point End Pass type
(mag) Time Alt. Az. Time Alt. Az. Time Alt. Az.
26 Apr ? 20:09:24 10° W 20:10:08 10° W 20:10:52 10° WNW visible
27 Apr ? 20:06:42 10° WSW 20:07:54 11° W 20:09:07 10° WNW visible
28 Apr ? 20:04:09 10° WSW 20:05:39 12° W 20:07:11 10° WNW visible
29 Apr ? 20:01:38 10° WSW 20:03:24 13° W 20:05:11 10° WNW visible
30 Apr ? 19:59:08 10° WSW 20:01:07 13° W 20:03:07 10° WNW visible
01 May ? 19:56:38 10° WSW 19:58:49 14° W 20:01:01 10° NW visible
02 May ? 19:54:08 10° SW 19:56:30 15° W 19:58:52 10° NW visible
03 May ? 19:51:39 10° SW 19:54:10 16° W 19:56:42 10° NW visible
